TimeCDT,TemperatureF,Dew PointF,Humidity,Sea Level PressureIn,VisibilityMPH,Wind Direction,Wind SpeedMPH,Gust SpeedMPH,PrecipitationIn,Events,Conditions,WindDirDegrees,DateUTC
12:15 AM,61.7,61.7,100,29.78,10.0,SW,4.6,-,N/A,Thunderstorm,Mostly Cloudy,220,2013-08-07 05:15:00
12:35 AM,61.7,61.7,100,29.77,10.0,South,3.5,-,N/A,,Overcast,190,2013-08-07 05:35:00
12:55 AM,61.7,61.7,100,29.78,10.0,Calm,Calm,-,N/A,,Overcast,0,2013-08-07 05:55:00
1:15 AM,61.7,61.7,100,29.79,10.0,Calm,Calm,-,N/A,,Mostly Cloudy,0,2013-08-07 06:15:00
1:35 AM,60.6,60.6,100,29.79,10.0,Calm,Calm,-,N/A,,Scattered Clouds,0,2013-08-07 06:35:00
1:55 AM,59.7,59.7,100,29.78,1.8,Calm,Calm,-,N/A,,Scattered Clouds,0,2013-08-07 06:55:00
2:15 AM,58.5,58.5,100,29.78,0.2,Calm,Calm,-,N/A,Fog,Fog,0,2013-08-07 07:15:00
2:35 AM,57.6,57.6,100,29.78,1.2,Calm,Calm,-,N/A,,Mostly Cloudy,0,2013-08-07 07:35:00
2:55 AM,57.0,57.0,100,29.78,0.2,Calm,Calm,-,N/A,Fog,Fog,0,2013-08-07 07:55:00
3:15 AM,56.5,56.5,100,29.77,0.2,Calm,Calm,-,N/A,Fog,Fog,0,2013-08-07 08:15:00
3:35 AM,55.8,55.8,100,29.78,0.2,Calm,Calm,-,N/A,Fog,Fog,0,2013-08-07 08:35:00
3:55 AM,54.5,54.5,100,29.78,0.2,Calm,Calm,-,N/A,Fog,Fog,0,2013-08-07 08:55:00
4:15 AM,54.0,54.0,100,29.79,0.8,Calm,Calm,-,N/A,,Overcast,0,2013-08-07 09:15:00
4:35 AM,53.2,53.2,100,29.78,0.5,Calm,Calm,-,N/A,Fog,Fog,0,2013-08-07 09:35:00
4:55 AM,53.1,53.1,100,29.78,10.0,Calm,Calm,-,N/A,,Clear,0,2013-08-07 09:55:00
5:15 AM,53.2,53.2,100,29.79,10.0,Calm,Calm,-,N/A,,Clear,0,2013-08-07 10:15:00
5:35 AM,52.7,52.7,100,29.79,10.0,Calm,Calm,-,N/A,,Clear,0,2013-08-07 10:35:00
5:55 AM,52.0,52.0,100,29.80,10.0,Calm,Calm,-,N/A,,Clear,0,2013-08-07 10:55:00
6:15 AM,51.8,51.8,100,29.81,10.0,South,3.5,-,N/A,,Scattered Clouds,180,2013-08-07 11:15:00
6:35 AM,55.0,55.0,100,29.82,10.0,South,3.5,-,N/A,,Mostly Cloudy,190,2013-08-07 11:35:00
6:55 AM,58.1,58.1,100,29.83,10.0,Calm,Calm,-,N/A,,Overcast,0,2013-08-07 11:55:00
7:15 AM,59.9,59.9,100,29.83,10.0,Calm,Calm,-,N/A,,Overcast,0,2013-08-07 12:15:00
7:35 AM,60.8,60.8,100,29.83,5.0,NNW,4.6,-,N/A,,Overcast,330,2013-08-07 12:35:00
7:55 AM,61.2,61.2,100,29.85,4.0,NW,3.5,-,N/A,,Overcast,310,2013-08-07 12:55:00
8:15 AM,61.5,61.5,100,29.85,4.0,NW,4.6,-,N/A,,Overcast,320,2013-08-07 13:15:00
8:35 AM,61.7,61.7,100,29.86,3.0,NNW,6.9,-,N/A,,Overcast,330,2013-08-07 13:35:00
8:55 AM,61.7,61.7,100,29.86,4.0,NNW,4.6,-,N/A,,Overcast,340,2013-08-07 13:55:00
9:15 AM,62.2,62.2,100,29.87,4.0,NNW,3.5,-,N/A,,Overcast,340,2013-08-07 14:15:00
9:35 AM,62.6,62.6,100,29.88,5.0,North,4.6,-,N/A,,Overcast,350,2013-08-07 14:35:00
9:55 AM,62.8,62.8,100,29.90,7.0,NW,5.8,-,N/A,,Overcast,310,2013-08-07 14:55:00
10:15 AM,63.7,63.1,98,29.91,10.0,NW,3.5,-,N/A,,Overcast,320,2013-08-07 15:15:00
10:35 AM,64.8,63.5,96,29.91,10.0,Calm,Calm,-,N/A,,Overcast,0,2013-08-07 15:35:00
10:55 AM,64.9,63.5,95,29.91,10.0,WNW,4.6,-,N/A,,Overcast,290,2013-08-07 15:55:00
11:15 AM,66.9,63.7,89,29.92,10.0,WSW,3.5,-,N/A,,Overcast,240,2013-08-07 16:15:00
11:35 AM,67.3,64.0,89,29.93,10.0,WSW,3.5,-,N/A,,Overcast,240,2013-08-07 16:35:00
11:55 AM,67.1,64.0,90,29.93,10.0,West,4.6,-,N/A,,Overcast,260,2013-08-07 16:55:00
12:15 PM,67.6,63.9,88,29.93,10.0,West,4.6,-,N/A,,Overcast,260,2013-08-07 17:15:00
12:35 PM,68.9,64.2,85,29.93,10.0,Calm,Calm,-,N/A,,Overcast,0,2013-08-07 17:35:00
12:55 PM,71.1,61.7,72,29.93,10.0,NW,6.9,-,N/A,,Mostly Cloudy,310,2013-08-07 17:55:00
1:15 PM,73.4,60.6,64,29.93,10.0,NNW,9.2,-,N/A,,Scattered Clouds,330,2013-08-07 18:15:00
1:35 PM,72.7,59.9,64,29.93,10.0,NW,9.2,-,N/A,,Scattered Clouds,310,2013-08-07 18:35:00
1:55 PM,72.7,58.8,62,29.93,10.0,NW,9.2,-,N/A,,Mostly Cloudy,310,2013-08-07 18:55:00
2:15 PM,73.2,58.5,60,29.93,10.0,NW,6.9,-,N/A,,Mostly Cloudy,310,2013-08-07 19:15:00
2:35 PM,75.4,57.0,53,29.93,10.0,NNW,11.5,-,N/A,,Scattered Clouds,330,2013-08-07 19:35:00
2:55 PM,75.4,55.9,51,29.93,10.0,NNW,10.4,-,N/A,,Scattered Clouds,340,2013-08-07 19:55:00
3:15 PM,76.8,55.0,47,29.93,10.0,NW,8.1,-,N/A,,Clear,310,2013-08-07 20:15:00
3:35 PM,77.0,52.5,42,29.93,10.0,WNW,9.2,-,N/A,,Scattered Clouds,300,2013-08-07 20:35:00
3:55 PM,77.2,52.3,42,29.92,10.0,NNW,9.2,-,N/A,,Scattered Clouds,340,2013-08-07 20:55:00
4:15 PM,77.0,51.3,40,29.92,10.0,North,11.5,-,N/A,,Clear,360,2013-08-07 21:15:00
4:35 PM,77.4,53.8,44,29.93,10.0,North,6.9,-,N/A,,Scattered Clouds,10,2013-08-07 21:35:00
4:55 PM,76.5,52.5,43,29.93,10.0,NNW,8.1,-,N/A,,Scattered Clouds,340,2013-08-07 21:55:00
5:15 PM,76.8,49.5,38,29.93,10.0,NNW,6.9,-,N/A,,Clear,330,2013-08-07 22:15:00
5:35 PM,76.3,48.4,37,29.93,10.0,NW,8.1,16.1,N/A,,Clear,310,2013-08-07 22:35:00
5:55 PM,76.1,50.2,40,29.93,10.0,NNW,5.8,-,N/A,,Clear,330,2013-08-07 22:55:00
6:15 PM,76.3,52.0,43,29.93,10.0,NNW,8.1,-,N/A,,Mostly Cloudy,330,2013-08-07 23:15:00
6:35 PM,75.2,51.8,44,29.94,10.0,NNW,8.1,-,N/A,,Scattered Clouds,330,2013-08-07 23:35:00
6:55 PM,74.7,51.6,44,29.94,10.0,NNW,5.8,-,N/A,,Scattered Clouds,340,2013-08-07 23:55:00
7:15 PM,73.6,52.7,48,29.95,10.0,North,4.6,-,N/A,,Scattered Clouds,350,2013-08-08 00:15:00
7:35 PM,72.1,52.9,51,29.96,10.0,NNW,3.5,-,N/A,,Clear,340,2013-08-08 00:35:00
7:55 PM,70.7,53.1,54,29.96,10.0,NNW,3.5,-,N/A,,Clear,340,2013-08-08 00:55:00
8:15 PM,68.4,53.1,58,29.97,10.0,NNW,3.5,-,N/A,,Clear,340,2013-08-08 01:15:00
8:35 PM,66.0,54.7,67,29.98,10.0,Calm,Calm,-,N/A,,Clear,0,2013-08-08 01:35:00
8:55 PM,60.1,55.6,85,29.98,10.0,North,3.5,-,N/A,,Clear,360,2013-08-08 01:55:00
9:15 PM,57.7,57.6,99,29.99,10.0,Calm,Calm,-,N/A,,Clear,0,2013-08-08 02:15:00
9:35 PM,55.9,55.9,100,30.00,10.0,Calm,Calm,-,N/A,,Clear,0,2013-08-08 02:35:00
9:55 PM,54.5,54.5,100,30.00,10.0,Calm,Calm,-,N/A,,Clear,0,2013-08-08 02:55:00
10:15 PM,53.8,53.8,100,30.01,10.0,Calm,Calm,-,N/A,,Clear,0,2013-08-08 03:15:00
10:35 PM,52.5,52.5,100,30.01,10.0,Calm,Calm,-,N/A,,Clear,0,2013-08-08 03:35:00
10:55 PM,51.3,51.3,100,30.01,10.0,Calm,Calm,-,N/A,,Clear,0,2013-08-08 03:55:00
11:15 PM,50.9,50.9,100,30.02,10.0,Calm,Calm,-,N/A,,Clear,0,2013-08-08 04:15:00
11:35 PM,49.5,49.5,100,30.02,10.0,Calm,Calm,-,N/A,,Clear,0,2013-08-08 04:35:00
11:55 PM,49.5,49.5,100,30.02,10.0,Calm,Calm,-,N/A,,Clear,0,2013-08-08 04:55:00